TUBIN
1 48900U 21059X   25238.60200639  .00066988  00000-0  61713-3 0  9992
2 48900  97.6782  54.5826 0002376 291.6801  68.4206 15.67432439232239
LEDSAT
1 49069U 21073D   25238.50829378  .00131842  00000-0  93344-3 0  9998
2 49069  97.3811 323.9286 0007499 159.9160 200.2401 15.73547766223638
CUTE
1 49263U 21088D   25238.15938950  .00037248  00000-0  65824-3 0  9995
2 49263  97.4465 316.8293 0005093 318.6349  41.4516 15.50243232216438
TeikyoSat 4
1 49396U 21102B   25238.59584547  .00001809  00000-0  12163-3 0  9998
2 49396  97.4054 274.2003 0011372 220.0991 139.9399 15.07923529208306
Z-Sat
1 49399U 21102E   25238.57216213  .00004100  00000-0  22242-3 0  9997
2 49399  97.3744 277.7685 0017740 187.9179 172.1776 15.14972780208783
KOSEN 1
1 49402U 21102H   25238.11745182  .00007220  00000-0  32569-3 0  9993
2 49402  97.3643 281.3433 0016318 161.9977 198.1841 15.21190138209077
HO-113
1 50466U 21131B   25238.60701867  .00000487  00000-0  16575-3 0  9990
2 50466  98.5091 327.5772 0003038 257.2090 102.8759 14.40891079192688
SNUGLITE 2
1 52899U 22065F   25238.30643016  .00001101  00000-0  22224-3 0  9999
2 52899  98.1795  19.5743 0006745 222.6021 137.4658 14.63371108167855
UmKA 1 (RS40S)
1 57172U 23091G   25238.57307572  .00006580  00000-0  34386-3 0  9999
2 57172  97.5511 293.5605 0015487  68.2245 292.0634 15.16123108119290
CubeBel-2 (EU11S)
1 57175U 23091K   25238.51886689  .00010817  00000-0  49556-3 0  9990
2 57175  97.5510 295.1534 0013156  74.7667 285.5021 15.20580969119397
ENSO
1 58470U 23185J   25238.63557971  .00098413  00000-0  98290-3 0  9992
2 58470  97.3658 316.7212 0006592 159.4054 200.7473 15.65280260 97202
EIRSAT-1
1 58472U 23185L   25238.55413112  .00690319  21774-3  13862-2 0  9991
2 58472  97.3500 320.7059 0007654 233.8388 126.2182 15.99702368 97463
SONATE-2
1 59112U 24043Q   25238.62635062  .00020557  00000-0  54875-3 0  9992
2 59112  97.5231  11.5391 0010539 190.6165 169.4859 15.38093307 82329
MO-122
1 60209U 24125G   25238.55368443  .00020902  00000-0  54702-3 0  9993
2 60209  97.2705  89.4006 0016821 211.8237 148.1994 15.38606035 63932
GRBBeta
1 60237U 24128C   25238.11371908  .00004747  00000-0  35260-3 0  9996
2 60237  61.9914 169.1040 0056401  74.1940 286.5360 15.03207170 61858
Curium One
1 60242U 24128H   25238.34432591  .00009120  00000-0  61257-3 0  9998
2 60242  61.9811 165.3706 0056392  70.9142 289.8045 15.06111700 61946
ROBUSTA-3A
1 60243U 24128J   25238.50496688  .00009739  00000-0  66294-3 0  9996
2 60243  61.9883 165.9055 0055750  68.4760 292.2263 15.05586794 61953
CatSat
1 60246U 24125J   25238.52670617  .00021358  00000-0  66921-3 0  9992
2 60246  97.2517  87.6674 0041077 173.9780 186.1965 15.32256610 61917
HYPERVIEW-1G (RS66S)
1 61772U 24199AP  25238.61190649  .00024856  00000-0  65567-3 0  9991
2 61772  97.3405 107.4162 0010517 271.7439  88.2601 15.38418135 88944
AO-123
1 61781U 24199AY  25238.59969554  .00007421  00000-0  26316-3 0  9995
2 61781  97.3427 105.3592 0013639 282.6220  77.3495 15.29284941 88800
ZIMSAT 2
1 61783U 24199BA  25238.60231965  .00051370  00000-0  10400-2 0  9995
2 61783  97.3368 108.7407 0009289 262.5604  97.4590 15.46221683 92185
HADES-R (SO-124)
1 62690U 25009CK  25238.16286713  .00048734  00000-0  14594-2 0  9994
2 62690  97.4045 318.9197 0003893 172.5368 187.5934 15.34357146 34022
HYDRA-T
1 62692U 25009CM  25237.15406993  .00040265  00000-0  11958-2 0  9990
2 62692  97.4050 317.9792 0003738 170.6645 189.4668 15.34667222 33871
JINJUSat 1B
1 63210U 25052A   25238.14123026  .00011878  00000-0  52021-3 0  9993
2 63210  97.4300 131.3175 0006023  65.3531 294.8332 15.22156949 25048
NUSHSAT 1
1 63211U 25052B   25238.44905601  .00013326  00000-0  57617-3 0  9990
2 63211  97.4288 131.6483 0006154  68.4948 291.6944 15.22568052 25091
TEVEL2-4
1 63213U 25052D   25238.61103880  .00013613  00000-0  59493-3 0  9993
2 63213  97.4203 131.5609 0005531  81.2193 278.9670 15.22200112 25119
TEVEL2-5
1 63214U 25052E   25237.95554293  .00012478  00000-0  54648-3 0  9993
2 63214  97.4207 130.9102 0005568  82.4936 277.6932 15.22148516 25018
TEVEL2-6
1 63215U 25052F   25238.61711028  .00013521  00000-0  59217-3 0  9996
2 63215  97.4205 131.5558 0005611  81.9039 278.2834 15.22127610 25117
TEVEL2-1
1 63217U 25052H   25238.44263487  .00012203  00000-0  53876-3 0  9991
2 63217  97.4181 131.2777 0005833  90.4185 269.7720 15.21876811 25083
TEVEL2-3
1 63218U 25052J   25238.44279382  .00012241  00000-0  54031-3 0  9999
2 63218  97.4183 131.2795 0005865  90.7585 269.4324 15.21882890 25089
TEVEL2-2
1 63219U 25052K   25238.44329845  .00011891  00000-0  52516-3 0  9996
2 63219  97.4180 131.2780 0005920  90.5261 269.6654 15.21871835 25087
TEVEL2-9
1 63237U 25052AD  25238.44026292  .00011845  00000-0  54250-3 0  9992
2 63237  97.4246 131.1151 0010086 100.7968 259.4404 15.20596593 25060
TEVEL2-7
1 63238U 25052AE  25238.44614523  .00011646  00000-0  53466-3 0  9990
2 63238  97.4247 131.1110 0010204 100.9122 259.3262 15.20515729 25066
TEVEL2-8
1 63239U 25052AF  25238.44976117  .00011882  00000-0  54593-3 0  9995
2 63239  97.4249 131.1047 0010169 101.1273 259.1107 15.20484775 25060
HYDRA-W
1 63490U 25052BL  25238.10486036  .00032621  00000-0  12282-2 0  9995
2 63490  97.4190 131.6006 0013953  98.9620 261.3199 15.26949305 25075
HADES-ICM (SO-125)
1 63492U 25052BN  25237.68809404  .00025778  00000-0  99255-3 0  9998
2 63492  97.4199 131.1018 0014055 103.0577 257.2231 15.26252656 25007
